This is the latest recevied weather packets stored in our database for station/object W7TTE. If no packets are shown the sender has not sent any weather packets the latest 10 day(s).
| Time | Temp. | Humidity | Pressure | Rain* | Wind** | Luminosity | Snow |
|---|---|---|---|---|---|---|---|
| 1778080433 | 19.44° C | 38% | 1018.6 hPa | 0 mm | - | 324 W/m² | - |
| 1778080131 | 18.89° C | 39% | 1018.6 hPa | 0 mm | - | 305 W/m² | - |
| 1778079827 | 18.89° C | 38% | 1018.4 hPa | 0 mm | - | 292 W/m² | - |
| 1778079524 | 18.33° C | 39% | 1018.4 hPa | 0 mm | - | 276 W/m² | - |
| 1778079220 | 18.33° C | 39% | 1018.5 hPa | 0 mm | - | 261 W/m² | - |
| 1778078918 | 18.33° C | 39% | 1018.4 hPa | 0 mm | - | 245 W/m² | - |
| 1778078614 | 17.78° C | 39% | 1018.4 hPa | 0 mm | - | 229 W/m² | - |
| 1778078313 | 17.78° C | 39% | 1018.4 hPa | 0 mm | - | 214 W/m² | - |
| 1778078009 | 17.22° C | 40% | 1018.4 hPa | 0 mm | - | 198 W/m² | - |
| 1778077708 | 17.78° C | 39% | 1018.3 hPa | 0 mm | - | 182 W/m² | - |
| 1778077405 | 17.22° C | 39% | 1018.4 hPa | 0 mm | - | 170 W/m² | - |
| 1778077104 | 16.67° C | 41% | 1018.3 hPa | 0 mm | - | 154 W/m² | - |
| 1778076801 | 16.11° C | 43% | 1018.1 hPa | 0 mm | - | 140 W/m² | - |
| 1778076499 | 15.56° C | 43% | 1018.2 hPa | 0 mm | - | 130 W/m² | - |
| 1778076195 | 15° C | 45% | 1018 hPa | 0 mm | - | 118 W/m² | - |
| 1778075893 | 14.44° C | 45% | 1017.9 hPa | 0 mm | - | 39 W/m² | - |
| 1778075589 | 14.44° C | 45% | 1017.9 hPa | 0 mm | - | 37 W/m² | - |
| 1778075285 | 13.89° C | 46% | 1017.9 hPa | 0 mm | - | 35 W/m² | - |
| 1778074982 | 13.89° C | 46% | 1017.7 hPa | 0 mm | - | 34 W/m² | - |
| 1778074679 | 13.33° C | 46% | 1017.7 hPa | 0 mm | - | 32 W/m² | - |
| 1778074376 | 13.33° C | 46% | 1017.8 hPa | 0 mm | - | 30 W/m² | - |
| 1778074073 | 12.78° C | 47% | 1017.7 hPa | 0 mm | - | 28 W/m² | - |
| 1778073770 | 12.78° C | 47% | 1017.7 hPa | 0 mm | - | 26 W/m² | - |
| 1778073468 | 12.78° C | 48% | 1017.7 hPa | 0 mm | - | 25 W/m² | - |
| 1778073163 | 12.78° C | 48% | 1017.5 hPa | 0 mm | - | 22 W/m² | - |
* Rain latest hour (hover to see other rain measurements)
** Current wind speed in m/s (hover to see current wind gust speed)